Location: Newark
(42.9260°N, 89.3850°W)
Time: 12:25:02
(UTC+00:00)

STARLINK 1049 - Pass Details

Date: 11 December 2019
Orbit: 348 x 351 km, 53.0° (Epoch: 25 January)

Event Time Altitude Azimuth Distance (km) Brightness Sun altitude
Exits shadow 11:14:25 36° 133° (SE) 571 4.1 -21.8°
Drops below altitude 10° 11:16:18 10° 129° (SE) 1,308 6.4 -21.5°
Sets 11:18:18 0° 129° (SE) 2,145 7.7 -21.2°
